This demonstration page uses our WeatherBlox Daily Observations layout. Learn more.

41.55636, -103.73856

Hourly Observations for October 31, 2016

Temp ( °F °C ) Dew Point ( °F °C ) Humidity (%) Winds ( mph kmh ) Pressure ( in mb ) Visibility ( mi km ) Precip ( " mm )
12:53 am 00:53 Clear 50 10 40 4.4 68 68 E 8 13 29.71 1006 10 16.0934 0 0
1:53 am 01:53 Clear 48 8.9 39 3.9 71 71 ESE 9 15 29.68 1005 10 16.0934 0 0
2:53 am 02:53 Clear 46 7.8 38 3.3 73 73 E 8 13 29.67 1005 10 16.0934 0 0
3:53 am 03:53 Clear 47 8.3 39 3.9 74 74 E 9 15 29.64 1004 10 16.0934 0 0
4:53 am 04:53 Clear 46 7.8 39 3.9 77 77 E 7 11 29.62 1003 10 16.0934 0 0
5:53 am 05:53 Clear 44 6.7 38 3.3 79 79 E 5 7 29.63 1003 10 16.0934 0 0
6:53 am 06:53 Clear 43 6.1 38 3.3 82 82 E 5 7 29.65 1004 10 16.0934 0 0
7:53 am 07:53 Sunny 51 10.6 37 2.8 59 59 SSW 7 11 29.63 1004 10 16.0934 0 0
8:53 am 08:53 Sunny 53 11.7 39 3.9 59 59 NNE 3 6 29.67 1005 10 16.0934 0 0
9:53 am 09:53 Sunny 67 19.4 40 4.4 37 37 W 21 33 29.68 1005 10 16.0934 0 0
10:53 am 10:53 Sunny 68 20 35 1.7 30 30 W 25 41 29.72 1007 10 16.0934 0 0
11:53 am 11:53 Sunny 68 20 31 -0.6 25 25 W 32 52 29.73 1007 10 16.0934 0 0
12:53 pm 12:53 Sunny 68 20 28 -2.2 22 22 WNW 36 57 29.7 1006 10 16.0934 0 0
1:53 pm 13:53 Sunny 68 20 29 -1.7 23 23 W 25 41 29.72 1006 10 16.0934 0 0
2:53 pm 14:53 Mostly Sunny 67 19.4 26 -3.3 21 21 W 26 43 29.73 1007 10 16.0934 0 0
3:53 pm 15:53 Sunny 65 18.3 26 -3.3 23 23 W 26 43 29.75 1007 10 16.0934 0 0
4:53 pm 16:53 Sunny 63 17.2 28 -2.2 27 27 W 21 33 29.78 1009 10 16.0934 0 0
5:53 pm 17:53 Clear 59 15 29 -1.7 32 32 W 13 20 29.8 1009 10 16.0934 0 0
6:53 pm 18:53 Clear 56 13.3 28 -2.2 34 34 W 13 20 29.83 1010 10 16.0934 0 0
7:53 pm 19:53 Clear 57 13.9 24 -4.4 28 28 W 9 15 29.82 1010 10 16.0934 0 0
8:53 pm 20:53 Clear 49 9.4 25 -3.9 39 39 WNW 7 11 29.85 1011 10 16.0934 0 0
9:53 pm 21:53 Clear 49 9.4 28 -2.2 44 44 NW 13 20 29.8 1009 10 16.0934 0 0
10:53 pm 22:53 Clear 46 7.8 27 -2.8 47 47 W 6 9 29.8 1009 10 16.0934 0 0
11:53 pm 23:53 Clear 39 3.9 25 -3.9 57 57 ENE 5 7 29.84 1011 10 16.0934 0 0

Powered by AerisWeather